Piloten Info

Wichtige Hinweise:

  • Neue Tower Frequenz 122,330 kHz - keine Landung ohne Funkkontakt
  • PPR Betrieb
  • Temporäre Hindernisse (Baukräne) nahe dem Flugplatz durch Bauarbeiten entlang der Nürnberger Straße (Östliche Seite).
  • Starts auf RWY 09 sind nicht gestattet. Start generell auf RWY 27. Bei Planung Rückenwinde berücksichtigen!
  • Bei Anflügen auf RWY 27 sind Hindernisse vorhanden, aus diesem Grund die versetzte Schwelle27!
  • Der Flugverein Neumarkt führt seine Starts generell auf RWY 27 und Landungen auf RWY09 durch.
  • Es besteht keine Tankmöglichkeit.

Diese Hinweis sind als Ergänzung / Hilfe zur regulären Flugplanung gedacht.

Auszüge aus AIP VFR ohne Gewähr - es gelten die offiziellen Veröffentlichungen.







METAR Informationen der nächstgelegenen Flughäfen


EDDN / Flughafen Nürnberg „Albrecht Dürer“

EDDN 171550Z 23016KT 9999 -SHRA FEW010 BKN025 05/02 Q1005 TEMPO 27015G25KT

ETIC / Fliegerhorst Grafenwöhr AAF

ETIC 171456Z AUTO 22006KT 9999 FEW044 BKN110 BKN150 05/03 A2963 RMK AO2 SLPNO 60002 T00460031 53001 $

ETIH / Fliegerhorst Hohenfels AAF

ETIH 171456Z AUTO 25008G17KT 9999 FEW014 FEW027 BKN038 OVC095 05/04 A2968 RMK AO2 RAB04E22DZB22E25 SLPNO P0000 60000 T00450041 53007 $